COSMOS 1275 DEB, 12748

Orbit data source: Space-Track

COSMOS 1275 DEB, 12748 is space debris in LEO originally from a launch on Thu, 04 Jun 1981 UTC launched from the Plesetsk Missile And Space Complex (PKMTR). Debris objects in space refer to the collection of defunct objects orbiting the Earth. Examples of debris include non-operational satellites, rocket bodies, and fragments generated from explosions, collisions, or faulty payload assembly.

Loading next visibility...
Identifier
12748, 1981-053CR
Orbit
LEO
Country
Flag of CISCIS
Related business
Manufacturer
Unknown
Mission
Spacecraft
Bus & Motor
Unknown
Mass
Unknown
Launch date (UTC)
1981-06-04 (44 years ago)
Launch vehicle
Unknown
Launch site
Plesetsk Missile And Space Complex (PKMTR)
Object type
Payload
Rocket body
Debris
Shape & HBR
Unknown shape, 0.2 m
Radar Cross Section
Small (<0.1 m²)

Expand to show TLE details & history
Last TLE update: 6 hours ago

TLE from 6 hours ago
0 COSMOS 1275 DEB
1 12748U 81053CR  25299.13737757  .00000308  00000-0  30590-3 0  9997
2 12748  82.9901 187.1458 0043027 248.2365 265.7209 13.74814405214211
Epoch: 2025-10-26T03:17Z
TLE epoch observation values (Epoch: 2025-10-26T03:17:49.422Z)
Latitude
26.35447°
Longitude
-80.54226°
Altitude
988.037 km
Speed
7.359 km/s
True Right ascension
00h 14m 41s
True Declination
26° 13' 20"
Sunlit
Object was in full shadow at epoch
Visualization orbit readout
Latitude
Unknown
Longitude
Unknown
Altitude
Unknown
Speed
Unknown
Apparent Right ascension
Unknown
Apparent Declination
Unknown
Sunlit
N/A
Visualization observer readout
Local Sidereal Time
05:01:55
Azimuth
Unknown
Elevation
Unknown
Doppler factor
Unknown
Orbital elements
Apogee altitude
1,011.142 km
Perigee altitude
947.827 km
Semi-major axis
7,357.621 km
Eccentricity
0.0043
Inclination
82.9901°
RAAN
187.1458°
Arg. of periapsis
248.2365°
True anomaly
265.22942°
Mean anomaly
265.7209°
Eccentric anomaly
265.47514°
Mean motion
3.43904 °/min
Orbital period
104.68 mins
BSTAR
0.0003059
Loading maneuver chart data...
Computing Atmospheric mass density...

Documentation

Showing up to 5 results
|